TimeMST,TemperatureF,Dew PointF,Humidity,Sea Level PressureIn,VisibilityMPH,Wind Direction,Wind SpeedMPH,Gust SpeedMPH,PrecipitationIn,Events,Conditions,WindDirDegrees,DateUTC
12:53 AM,66.9,53.1,61,29.99,10.0,North,6.9,-,N/A,,Overcast,10,2013-08-07 07:53:00
1:53 AM,64.9,55.0,70,29.99,10.0,Calm,Calm,-,N/A,,Overcast,0,2013-08-07 08:53:00
2:53 AM,63.0,53.1,70,29.99,10.0,WSW,4.6,-,N/A,,Mostly Cloudy,250,2013-08-07 09:53:00
3:53 AM,62.1,53.1,72,29.98,10.0,South,6.9,-,N/A,,Overcast,190,2013-08-07 10:53:00
4:53 AM,63.0,53.1,70,29.98,10.0,Calm,Calm,-,N/A,,Mostly Cloudy,0,2013-08-07 11:53:00
5:53 AM,61.0,52.0,72,30.00,10.0,Calm,Calm,-,N/A,,Clear,0,2013-08-07 12:53:00
6:53 AM,63.0,53.1,70,30.00,10.0,Calm,Calm,-,N/A,,Clear,0,2013-08-07 13:53:00
7:53 AM,68.0,54.0,61,30.01,10.0,Calm,Calm,-,N/A,,Clear,0,2013-08-07 14:53:00
8:53 AM,73.0,53.1,49,29.99,10.0,NNW,3.5,-,N/A,,Partly Cloudy,340,2013-08-07 15:53:00
9:53 AM,77.0,52.0,42,29.98,10.0,Variable,3.5,-,N/A,,Partly Cloudy,0,2013-08-07 16:53:00
10:53 AM,79.0,48.0,34,29.96,10.0,Variable,5.8,-,N/A,,Clear,0,2013-08-07 17:53:00
11:53 AM,81.0,46.9,30,29.95,10.0,SW,10.4,-,N/A,,Scattered Clouds,220,2013-08-07 18:53:00
12:53 PM,82.9,45.0,26,29.93,10.0,Variable,3.5,17.3,N/A,,Scattered Clouds,0,2013-08-07 19:53:00
1:53 PM,82.9,42.1,24,29.92,10.0,WNW,8.1,-,N/A,,Scattered Clouds,290,2013-08-07 20:53:00
2:53 PM,84.9,43.0,23,29.90,10.0,West,16.1,23.0,N/A,,Scattered Clouds,280,2013-08-07 21:53:00
3:53 PM,84.0,42.1,23,29.88,10.0,WSW,8.1,19.6,N/A,,Scattered Clouds,240,2013-08-07 22:53:00
4:53 PM,84.9,43.0,23,29.87,10.0,West,12.7,-,N/A,,Scattered Clouds,260,2013-08-07 23:53:00
5:53 PM,84.0,42.1,23,29.87,10.0,West,15.0,19.6,N/A,,Partly Cloudy,270,2013-08-08 00:53:00
6:53 PM,81.0,39.0,22,29.89,10.0,WSW,11.5,-,N/A,,Partly Cloudy,250,2013-08-08 01:53:00
7:53 PM,75.9,39.0,26,29.90,10.0,SW,5.8,-,N/A,,Clear,220,2013-08-08 02:53:00
8:53 PM,73.0,39.0,29,29.91,10.0,SW,4.6,-,N/A,,Clear,220,2013-08-08 03:53:00
9:53 PM,70.0,41.0,35,29.91,10.0,SSW,4.6,-,N/A,,Clear,200,2013-08-08 04:53:00
10:53 PM,68.0,41.0,37,29.91,10.0,SSW,3.5,-,N/A,,Clear,200,2013-08-08 05:53:00
11:53 PM,66.9,41.0,39,29.91,10.0,SSE,5.8,-,N/A,,Clear,160,2013-08-08 06:53:00